FENGYUN 1C DEB

Satellite information

Favourite Embed

Satellite Type and Status

DEBRISIN ORBIT

Key statistics

Satellite FENGYUN 1C DEB at a glance.

Uptime

9555

Days in orbit

Revolutions

≈ 14.1

Per day

Orbit

SSO

Sun Synchronous Orbit

Inclination

99.1

Latest

Satellite identification and parameters

Extended collection of information and parameters for FENGYUN 1C DEB.

Object identification

Identified? True

Debris? True

Object name: FENGYUN 1C DEB

International designator: 1999-025BK

Object number (NORAD): 29769

Object ID (CCSDS): 29769

Country: PEOPLES REPUBLIC OF CHINA (PRC)

Current information (Y/N): Y

RCS size: SMALL

Orbital parameters

Period: 101.949 minutes

Inclination: 99.1173 deg

SMA: 7229.058 km

Apoapsis: 918.49 km

Periapsis: 783.356 km

RAAN: 241.0754 deg

Eccentricy: 0.0093466

Argument of periapsis: 219.2575 deg

Mean anomaly: 140.1794 deg

Mean motion: 14.12473225 rev/day

Mean motion (dot): 0.00001703 rev/day2

B* drag term: 0.00090908 1/REarth

Two-line elements (TLE)

Creation date: July 6, 2025, 4:10 a.m.

Reference frame: TEME

Reference center: EARTH

Epoch: July 5, 2025, 2:57 p.m. UTC

TLE line 0: 0 FENGYUN 1C DEB

TLE line 1: 1 29769U 99025BK 25186.62341690 .00001703 00000-0 90908-3 0 9991

TLE line 2: 2 29769 99.1173 241.0754 0093466 219.2575 140.1794 14.12473225944203

Live tracking on map

Real-time ground track for satellite FENGYUN 1C DEB.

In-orbit conjunctions

A list of the most updated potential collisions computed for object FENGYUN 1C DEB.

Target Orbit TCA Probability of collision Miss distance Type
DELTA 1 R/B SSO 2025-06-18 13:36:54 0.0001813468 593.0 (m) ROCKET BODY
FENGYUN 1C DEB SSO 2025-01-23 09:54:15 0.000147045 33.0 (m) DEBRIS
CZ-6A DEB LEO 2025-01-18 07:16:18 0.0002143112 629.0 (m) DEBRIS

Associated space launch

Chinese polar orbiting meteorological satellite

FENGYUN 1C DEB was lifted into orbit during the mission ‘Long March 4B | Feng Yun 1C’, on board a Long March 4B space rocket.

The launch took place on May 10, 1999, 1:33 a.m. from Launch Complex 7.

For more information about the launch, click the button.

Launch to space Long March 4B | Feng Yun 1C
Long March 4B | Feng Yun 1C

Agency: N/A

Status: Launch Successful

Launch date: May 10, 1999, 1:33 a.m. UTC

Rocket: Long March 4B

Launch pad: Launch Complex 7

Location: Taiyuan Satellite Launch Center, People's Republic of China

...

Latest news about this satellite

There are no fresh news available about this satellite. Check back as we update our databases every day.


Newsletter sign-up

Weekly statistics, charts and insights to help you stay on top of the space industry.